Погода в Ербенте

Погода в Ербенте : погода сейчас, прогноз погоды и архив. Всё, что Вы хотите узнать о погоде в Ербенте!

Хотите узнать прогноз погоды в Ербенте? Тогда Вам сюда: Погода в Ербенте

Поиск расширенной информации на нашем сайте:

Другие новости

Новости СМИ2

Главная страница сайта

Новости сайта

03.07.2017

Напоминаем, что на нашем специализированном сайте Метеоцентр.Азия вы можете получить высокодетализированные автоматические прогнозы погоды по пунктам России, СНГ и мира в авиационном формате (включающие направление и скорость ветра, видимость, явления погоды, количество и форму облачности, нижнюю и верхнюю границу облачности).


Погода в Ербенте - сегодня

Время (UTC), дата Ветер
(°,м/с) 
Видим.   Явления Облачность Т
(°С)
Тd
(°С)
f(%) Тe
(°С)
Pmin
(гПа)
dP
(гПа)
Po
(мм)
O2
(г/м3)
Тmin Tmax R s Состояние
почвы
21 23.05.18 070 (В) 20000 м    ясно 
+25.4 -2.5 16 +25  1018.2  0.2  756  279           
00 24.05.18 070 (В) 20000 м    ясно 
+22 -3 19 +22  1018.3  756  282           
03 24.05.18 070 (В) 20000 м    ясно 
+23.2 +0.6 22 +23  1018.7  0.4  756  281           
06 24.05.18 090 (В) 10 км    ясно 
+29.8 +3.4 19 +30  1018.3  -0.2  756  274  +21.1         
09 24.05.18 090 (В) 20000 м    ясно 
+32.5 +2.3 15 +33  1017.1  -1  755  272           
12 24.05.18 070 (В) 20000 м    ясно 
+34 +1.5 13 +34  1014.8  -2.3  754  270           
15 24.05.18 050 (СВ) 20000 м    ясно 
+32.5 +0.6 13 +33  1012.9  -1.9  752  271    +34.5       
18 24.05.18 050 (СВ) 20000 м    ясно 
+25.3 -2.2 16 +25  1013.9  0.7  753  278    +34.5       
21 24.05.18 070 (В) 20000 м    ясно 
+22.1 -6.7 14 +22  1013.2  -0.8  752  281           
00 25.05.18 070 (В) 20000 м    ясно 
+18.6 -6 18 +20  1013.1  -0.2  752  284           
03 25.05.18 тихо ()   20000 м    ясно 
+22.7 -4.4 16 +23  1013.3  0.4  752  280  +17.8        сухая 
06 25.05.18 110 (В) 20000 м    ясно 
+30 -3 12 +30  1012.8  -0.3  752  273  +17.8         
09 25.05.18 070 (В) 20000 м    ясно 
+34.8 -6.7 7 +35  1010.7  -1.9  751  269           
12 25.05.18 070 (В) 20000 м    ясно 
+36.4 -13.3 4 +36  1009.1  -1.6  749  267           
15 25.05.18 тихо ()   20000 м    ясно 
+35.2 -13.3 4 +35  1008.4  -0.7  749  268    +37       
18 25.05.18 тихо ()   20000 м    ясно 
+29.4 -10.3 7 +29  1009  0.4  749  273    +37       
21 25.05.18 тихо ()   20000 м    ясно 
+21.8 -7.1 14 +22  1009.4  0.2  749  280           
00 26.05.18 тихо ()   20000 м    ясно 
+18.8 -4.4 20 +19  1007.1  -2.4  748  282           
03 26.05.18 тихо ()   20000 м    ясно 
+21.6 -0.5 23 +22  1007.1  0.2  748  279           
06 26.05.18 тихо ()   20000 м    6/0 верхняя 
[Ci sp]
+35.2 -0.7 10 +35  1006.6  748  267  +17.9         
09 26.05.18 тихо ()   20000 м    ясно 
+38.2 -4.1 7 +38  1005.2  -1.2  747  264           
12 26.05.18 270 (З) 20000 м    ясно 
+39.8 -3 7 +40  1003.7  -1.6  746  262           
15 26.05.18 290 (З) 20000 м    ясно 
+37.2 -1.4 9 +37  1008.3  746  264    +40.3       
18 26.05.18 270 (З) 20000 м    ясно 
+31.8 +0.6 14 +32  1005.2  1.2  746  269    +40.3       
21 26.05.18 290 (З) 20000 м    ясно 
+28.6 +4.8 22 +29  1006.7  1.5  748  272           
Время (UTC), дата Ветер
(°,м/с) 
Видим.   Явления Облачность Т
(°С)
Тd
(°С)
f(%) Тe
(°С)
Pmin
(гПа)
dP
(гПа)
Po
(мм)
O2
(г/м3)
Тmin Tmax R s Состояние
почвы

Для получения пояснительной информации подведите курсор к названию столбца.

ПОГОДА в Ербенте - архив

Всё, что Вы хотите узнать о погоде в Ербенте - удобно и подробно!

Выберите нужную дату (начиная с 1 января 2015* года) и нажмите кнопку "Найти".
Будут отображены архивные сводки погоды по пункту Ербент, начиная с указанной даты.


Отображать данные в формате CSV (для использования в таблицах Excel)


Внимание! Наш архив погоды предназначен исключительно для личного некоммерческого использования в познавательных целях. Если Вам необходимы официальные справки о состоянии погоды (для производственных, юридических, коммерческих и т.п. целей), обращайтесь в органы Росгидромета.

*Примечание: данная дата относится к архиву по метеостанциям СССР (Россия, СНГ, Балтия).
Архив по метеостанциям Зарубежной Европы и Азии (кроме Китая) хранится 10 дней, по другим регионам земного шара (Китай, Африка, Америка, Австралия, Океания) - 1 день.

Ербент - район местоположения метеостанции


Название, широта, долгота, высота метеостанции:
Ербент 39.3°ш. 58.6°д. 87 м над ур. моря [Туркменистан]

Дополнительная информация

В oтличие oт бoльшинства пoгoдных сайтoв мы публикуем пoдрoбную метеoинфoрмацию в детальнoм прoфессиoнальнoм фoрмате.

Характеристики температуры и влажнoсти вoздуха измеряются на высoте 2 м в тени вдали oт зданий и деревьев.
Скoрoсть ветра измеряется на высoте 10 м (на урoвне рoста челoвека скoрoсть ветра ниже в 1.5-2 раза). Если метеoстанция нахoдится в гoрoде или в лесу, тo скoрoсть ветра занижена на 2-4 м/с пo сравнению с oткрытым местoм. Скoрoсть ветра над акватoриями крупных рек и oзёр, а также на вершинах хoлмoв на 2-5 м/с выше, чем в oбычных услoвиях.
Атмoсфернoе давление в разных тoчках местнoсти мoжет значительнo oтличаться oт давления на метеoстанции, в зависимoсти oт услoвий рельефа (при пoдъёме на 10 м давление пoнижается примернo на 1 мм рт.ст.).